Weather History for KCHA - December, 2013

Change the Weather History Date:

Monday, December 2, 2013

  Actual Average Record
Temperature  
Mean Temperature 50 °F 46 °F  
Max Temperature 55 °F 56 °F 74 °F (1998)
Min Temperature 45 °F 36 °F 17 °F (1929)
Degree Days  
Heating Degree Days 15 19  
Month to date heating degree days 38 38  
Since 1 July heating degree days 669 627  
Cooling Degree Days 0 0  
Month to date cooling degree days 0 0  
Year to date cooling degree days 1752 1741  
Moisture  
Dew Point 45 °F    
Average Humidity 80    
Maximum Humidity 93    
Minimum Humidity 66    
Precipitation  
Precipitation 0.08 in 0.17 in 1.36 in (1905)
Month to date precipitation 0.08 0.35  
Year to date precipitation 60.87 47.93  
Snow  
Snow 0.00 in 0.00 in - ()
Month to date snowfall 0.0 0.0  
Since 1 July snowfall T T  
Snow Depth 0.00 in    
Sea Level Pressure  
Sea Level Pressure 29.90 in    
Wind  
Wind Speed 1 mph (South)    
Max Wind Speed 6 mph    
Max Gust Speed 8 mph    
Visibility 3 miles    
Events Fog , Rain    
T = Trace of Precipitation, MM = Missing Value Source: NWS Daily Summary

Daily Weather History Graph

Daily Weather History Graph

Search for Another Location

Airport or City:

Trip Planner

Search our weather history database for the weather conditions in past years. The results will help you decide how hot, cold, wet, or windy it might be!

Date:

Astronomy

Dec. 02, 2013 Rise Set
Actual Time 7:31 AM EST 5:28 PM EST
Civil Twilight 7:03 AM EST 5:56 PM EST
Nautical Twilight 6:32 AM EST 6:28 PM EST
Astronomical Twilight 6:01 AM EST 6:58 PM EST
Moon 6:57 AM EST (12/2) 5:30 PM EST (12/2)
Length of Visible Light 10h 52m
Length of Day
9h 57m
Waning Crescent, 0% of the Moon is Illuminated
Dec 2
Waning Crescent
Dec 2
New
Dec 9
First Quarter
Dec 17
Full
Dec 25
Last Quarter

Hourly Weather History & Observations

Time (EST) Temp. Windchill Dew Point Humidity Pressure Visibility Wind Dir Wind Speed Gust Speed Precip Events Conditions
12:53 AM 48.9 °F - 37.9 °F 66% 30.00 in 10.0 mi Calm Calm - N/A   Overcast
1:53 AM 48.0 °F - 39.0 °F 71% 29.98 in 10.0 mi Calm Calm - N/A   Overcast
2:53 AM 46.9 °F - 39.9 °F 77% 29.98 in 10.0 mi Calm Calm - 0.00 in Rain Light Rain
3:27 AM 48.2 °F - 39.2 °F 71% 29.98 in 10.0 mi Calm Calm - 0.00 in   Overcast
3:53 AM 46.9 °F - 41.0 °F 80% 29.97 in 6.0 mi Calm Calm - 0.01 in Rain Light Rain
4:36 AM 44.6 °F 43.1 °F 42.8 °F 93% 29.96 in 6.0 mi SSE 3.5 mph - 0.03 in Rain Light Rain
4:53 AM 45.0 °F 42.6 °F 42.1 °F 90% 29.96 in 4.0 mi SSE 4.6 mph - 0.04 in Rain Rain
5:01 AM 44.6 °F - 42.8 °F 93% 29.96 in 6.0 mi Calm Calm - 0.01 in Rain Light Rain
5:46 AM 44.6 °F - 42.8 °F 93% 29.95 in 6.0 mi Calm Calm - 0.01 in Rain Light Rain
5:53 AM 45.0 °F - 43.0 °F 93% 29.96 in 6.0 mi Calm Calm - 0.01 in   Overcast
6:53 AM 45.0 °F - 43.0 °F 93% 29.95 in 5.0 mi Calm Calm - N/A   Overcast
7:20 AM 44.6 °F - 42.8 °F 93% 29.94 in 2.5 mi Calm Calm - N/A   Overcast
7:51 AM 46.4 °F - 42.8 °F 87% 29.93 in 1.5 mi Calm Calm - N/A   Overcast
7:53 AM 46.0 °F - 43.0 °F 89% 29.94 in 1.5 mi Calm Calm - N/A   Overcast
8:32 AM 46.4 °F - 44.6 °F 93% 29.94 in 0.5 mi Calm Calm - 0.00 in Fog Light Drizzle
8:53 AM 46.0 °F - 44.1 °F 93% 29.95 in 0.5 mi Calm Calm - 0.01 in Fog , Rain Light Rain
9:53 AM 46.0 °F 44.8 °F 45.0 °F 96% 29.94 in 0.5 mi SSE 3.5 mph - 0.01 in   Light Drizzle
10:50 AM 46.4 °F - 44.6 °F 93% 29.93 in 1.0 mi Calm Calm - 0.00 in   Light Drizzle
10:53 AM 46.9 °F - 45.0 °F 93% 29.93 in 1.0 mi South 4.6 mph - 0.00 in   Light Drizzle
11:44 AM 48.2 °F - 44.6 °F 87% 29.91 in 1.5 mi South 4.6 mph - 0.00 in   Light Drizzle
11:53 AM 48.0 °F - 45.0 °F 89% 29.91 in 1.5 mi South 3.5 mph - 0.00 in   Light Drizzle
12:53 PM 48.0 °F - 46.0 °F 93% 29.88 in 1.5 mi Calm Calm - 0.00 in   Overcast
1:53 PM 48.9 °F - 46.0 °F 90% 29.85 in 2.0 mi Calm Calm - N/A   Overcast
2:51 PM 48.2 °F - 46.4 °F 93% 29.83 in 4.0 mi Calm Calm - N/A   Overcast
2:53 PM 48.9 °F - 46.0 °F 90% 29.84 in 4.0 mi Calm Calm - N/A   Overcast
3:19 PM 50.0 °F - 46.4 °F 87% 29.83 in 2.5 mi SSW 3.5 mph - N/A   Light Drizzle
3:35 PM 50.0 °F - 46.4 °F 87% 29.83 in 1.5 mi SSW 3.5 mph - N/A   Light Drizzle
3:53 PM 50.0 °F - 48.0 °F 93% 29.83 in 1.5 mi SSW 3.5 mph - 0.00 in   Light Drizzle
4:53 PM 52.0 °F - 48.0 °F 86% 29.83 in 1.5 mi SSE 3.5 mph - 0.00 in   Overcast
5:27 PM 51.8 °F - 48.2 °F 88% 29.83 in 1.2 mi Calm Calm - N/A   Overcast
5:53 PM 52.0 °F - 48.0 °F 86% 29.84 in 1.2 mi Calm Calm - N/A   Overcast
6:18 PM 51.8 °F - 48.2 °F 88% 29.83 in 1.8 mi Calm Calm - N/A   Overcast
6:51 PM 53.6 °F - 48.2 °F 82% 29.83 in 1.8 mi Calm Calm - N/A   Overcast
6:53 PM 54.0 °F - 48.9 °F 83% 29.83 in 1.8 mi Calm Calm - N/A   Overcast
7:53 PM 52.0 °F - 48.0 °F 86% 29.83 in 1.5 mi Calm Calm - N/A   Overcast
8:53 PM 52.0 °F - 46.9 °F 83% 29.85 in 1.5 mi Calm Calm - N/A   Overcast
9:46 PM 51.8 °F - 46.4 °F 82% 29.85 in 1.2 mi Calm Calm - 0.00 in   Light Drizzle
9:53 PM 51.1 °F - 46.9 °F 86% 29.86 in 1.0 mi Calm Calm - 0.00 in Rain Light Rain
10:53 PM 51.1 °F - 46.9 °F 86% 29.85 in 1.2 mi Calm Calm - 0.00 in   Overcast
11:53 PM 54.0 °F - 45.0 °F 72% 29.86 in 1.2 mi Calm Calm - N/A   Haze